Location: Cañada de la Miga
(34.7595°N, 106.2317°W)
Time: 16:46:31
(UTC+00:00)

A-11 Canister half - Pass Details

Date: 05 December 2021
Orbit: 1516 x 1684 km, 47.2° (Epoch: 17 January)

Event Time Altitude Azimuth Distance (km) Brightness Sun altitude
Rises 10:36:10 0° 179° (S) 4,678 11.6 -40.7°
Reaches altitude 10° 10:40:30 10° 161° (SSE) 3,723 11.2 -39.8°
Maximum altitude 10:46:14 18° 123° (ESE) 3,179 11.1 -38.6°
Drops below altitude 10° 10:52:03 10° 85° (E) 3,811 11.8 -37.4°
Sets 10:56:32 0° 68° (ENE) 4,833 12.4 -36.5°
